Location: Bijele Vode
(45.2833°N, 16.2000°E)
Time: 06:30:35
(UTC+00:00)

CENTAUR R/B - Pass Details

Date: 21 January 2021
Orbit: 742 x 1446 km, 63.5° (Epoch: 01 March)

Event Time Altitude Azimuth Distance (km) Brightness Sun altitude
Rises 04:38:19 0° 172° (S) 3,332 5.5 -18.8°
Reaches altitude 10° 04:41:06 10° 157° (SSE) 2,487 5.1 -18.3°
Maximum altitude 04:45:28 23° 108° (ESE) 1,894 4.9 -17.6°
Drops below altitude 10° 04:50:23 10° 59° (ENE) 2,837 5.6 -16.7°
Sets 04:53:47 0° 46° (NE) 3,929 6.2 -16.1°
